STARLINK-4433, 53478

Orbit data source: Space-Track

STARLINK-4433, 53478 is a payload satellite owned by SpaceX/Seattle (US) in SSO that was launched on Fri, 12 Aug 2022 UTC via an FALCON 9 launch vehicle from the Air Force Western Test Range (AFWTR). Payload-class satellites include a variety of spacecraft equipped with specific instruments for various scientific and technological missions. These include communications satellites like Starlink; space stations such as the ISS; scientific satellites like the Hubble; Earth observation satellites from companies like Planet Labs, Umbra, and HawkEye 360; GPS; miniature CubeSats for education and research; and military/defense satellites.

Loading next visibility...
Identifier
53478, 2022-099P
Orbit
SSO
Country
Flag of USUS
Related business
Manufacturer
SpaceX/Seattle
Mission
Operational Commercial Communications
Bus & Motor
STARLINK, Unknown motor
Mass
300 kg wet, ~275 kg dry
Launch date (UTC)
2022-08-12 (3 years ago)
Launch vehicle
FALCON 9
Launch site
Air Force Western Test Range (AFWTR)
Object type
Payload
Rocket body
Debris
Shape & HBR
Box + 1 Pan, 10.1 m
Radar Cross Section
13.562 m², Large (>1 m²)

Expand to show TLE details & history
Last TLE update: 9 hours ago

TLE from 9 hours ago
0 STARLINK-4433
1 53478U 22099P   25293.60402396  .00000506  00000-0  43912-4 0  9994
2 53478  97.6041  53.0837 0002302  85.4074 274.7413 15.01247222174968
Epoch: 2025-10-20T14:29Z
TLE epoch observation values (Epoch: 2025-10-20T14:29:47.670Z)
Latitude
-0.00003°
Longitude
166.33112°
Altitude
565.977 km
Speed
7.578 km/s
True Right ascension
03h 32m 20s
True Declination
0° 00' 00"
Sunlit
Object was in full shadow at epoch
Visualization orbit readout
Latitude
Unknown
Longitude
Unknown
Altitude
Unknown
Speed
Unknown
Apparent Right ascension
Unknown
Apparent Declination
Unknown
Sunlit
N/A
Visualization observer readout
Local Sidereal Time
18:15:04
Azimuth
Unknown
Elevation
Unknown
Doppler factor
Unknown
Orbital elements
Apogee altitude
561.646 km
Perigee altitude
558.451 km
Semi-major axis
6,938.186 km
Eccentricity
0.00023
Inclination
97.6041°
RAAN
53.0837°
Arg. of periapsis
85.4074°
True anomaly
274.71501°
Mean anomaly
274.7413°
Eccentric anomaly
274.72816°
Mean motion
3.75556 °/min
Orbital period
95.86 mins
BSTAR
0.000043912
Loading maneuver chart data...
Computing Atmospheric mass density...
Loading historical data...
Loading historical data...
Loading historical data...
Loading historical data...
Loading historical data...
Loading historical data...
Loading historical data...

Documentation

Showing up to 5 results
|